GOMX-1 (39430 NORAD) Tracking and Keplerian Element Data

This shows tracking and keplerian element data for the satellite.

Feedback or suggestion? Click here.




ElementValue
Catalog39430
NameGOMX-1
Epoch Orbit28850
Epoch Day114.14995071
Epoch Year2019
RAAN74.3812
Inclination97.7409
Eccentricity0.0152904
Argument of Perigee69.4343
Mean Anonmoly292.3193
Mean Motion14.5922507
Decay Rate1.97E-06
L11 39430U 13066Q 19114.14995071 .00000197 00000-0 44182-4 0 9997
L22 39430 97.7409 74.3812 0152904 69.4343 292.3193 14.59225070288509

Live tracking and technical data element details for GOMX-1 (NORAD 39430). GOMX-1 can be tracked NOW for your location showing map with azimuth and elevation plus other details from your city location.

Track the satellite on the map from your city or location and see movement details for azimuth, elevation, latitude, longitude, range, height, and movement on the map or in text.







IsCatalogInMostPopularTable: catalog: 39430, numindb: 194
Update: records affected: 1



GetName: 39430 GOMX-1

Hit Count: updated at: Wed, 24 Apr 2019 17:46:09 GMT